N6DZK Weather Reports


time (UTC)temp
C
wind
direction
speed
KPH
gust
KPH
rain 1hr
cm
rain 24hr
cm
rain mn
cm
humidity
%
barometer
mb
20260507041400 17 113 0.0 3.2 0.00 0.00 0.00 72 1018.7
20260507040857 17 37 0.0 3.2 0.00 0.00 0.00 71 1018.9
20260507040353 17 18 4.8 6.4 0.00 0.00 0.00 71 1018.7
20260507035849 17 4 1.6 3.2 0.00 0.00 0.00 70 1018.7
20260507035345 17 300 0.0 1.6 0.00 0.00 0.00 70 1018.8
20260507034843 17 60 0.0 3.2 0.00 0.00 0.00 69 1018.7
20260507034339 17 359 0.0 4.8 0.00 0.00 0.00 69 1018.6
20260507033837 18 49 0.0 3.2 0.00 0.00 0.00 68 1018.6
20260507033335 18 34 0.0 3.2 0.00 0.00 0.00 68 1018.4
20260507032832 18 62 3.2 3.2 0.00 0.00 0.00 67 1018.3
20260507032328 18 85 0.0 6.4 0.00 0.00 0.00 67 1018.3
20260507031824 18 347 0.0 3.2 0.00 0.00 0.00 66 1018.3
20260507031321 18 76 0.0 4.8 0.00 0.00 0.00 66 1018.4
20260507030818 18 358 0.0 3.2 0.00 0.00 0.00 66 1018.2
20260507030316 19 28 0.0 3.2 0.00 0.00 0.00 65 1018.0
20260507025812 19 315 0.0 3.2 0.00 0.00 0.00 65 1018.1
20260507025310 19 31 0.0 3.2 0.00 0.00 0.00 64 1018.0
20260507024808 20 49 0.0 3.2 0.00 0.00 0.00 64 1017.8
20260507024304 20 79 1.6 3.2 0.00 0.00 0.00 63 1017.7
20260507023800 20 37 0.0 3.2 0.00 0.00 0.00 62 1017.7
20260507023257 20 326 0.0 4.8 0.00 0.00 0.00 61 1017.7
20260507022754 20 31 0.0 3.2 0.00 0.00 0.00 61 1017.7
20260507022250 21 331 0.0 3.2 0.00 0.00 0.00 60 1017.7
20260507021747 21 329 3.2 4.8 0.00 0.00 0.00 60 1017.8
20260507021242 21 25 3.2 4.8 0.00 0.00 0.00 59 1017.6
20260507020741 21 15 0.0 4.8 0.00 0.00 0.00 58 1017.8
20260507020237 21 53 3.2 4.8 0.00 0.00 0.00 58 1017.6
20260507015734 22 301 3.2 4.8 0.00 0.00 0.00 56 1017.5
20260507015232 22 323 0.0 4.8 0.00 0.00 0.00 55 1017.4
20260507014728 22 43 3.2 6.4 0.00 0.00 0.00 55 1017.5
20260507014225 22 262 3.2 4.8 0.00 0.00 0.00 54 1017.4
20260507013721 22 25 0.0 6.4 0.00 0.00 0.00 54 1017.5
20260507013219 23 345 1.6 6.4 0.00 0.00 0.00 53 1017.4
20260507012716 23 1 1.6 4.8 0.00 0.00 0.00 52 1017.4
20260507012217 24 39 3.2 6.4 0.00 0.00 0.00 51 1017.4
20260507011715 24 351 0.0 4.8 0.00 0.00 0.00 51 1017.2
20260507011211 24 288 0.0 3.2 0.00 0.00 0.00 51 1017.1
20260507010710 24 3 0.0 8.0 0.00 0.00 0.00 51 1017.2
20260507010207 25 334 3.2 6.4 0.00 0.00 0.00 51 1017.0
20260507005705 25 17 1.6 4.8 0.00 0.00 0.00 51 1016.9
20260507005200 25 7 3.2 6.4 0.00 0.00 0.00 50 1017.0
20260507004657 25 308 4.8 4.8 0.00 0.00 0.00 51 1017.1
20260507004155 25 37 6.4 8.0 0.00 0.00 0.00 49 1017.0
20260507003651 25 260 3.2 6.4 0.00 0.00 0.00 49 1016.9
20260507003151 25 272 3.2 4.8 0.00 0.00 0.00 49 1017.1
20260507002648 25 78 3.2 6.4 0.00 0.00 0.00 49 1017.0
20260507002144 25 9 0.0 6.4 0.00 0.00 0.00 49 1017.1
20260507001641 25 344 4.8 11.3 0.00 0.00 0.00 48 1017.1
20260507001138 26 29 1.6 4.8 0.00 0.00 0.00 47 1017.0
20260507000634 26 321 3.2 4.8 0.00 0.00 0.00 47 1017.0
20260507000130 26 343 6.4 6.4 0.00 0.00 0.00 47 1017.0
20260506235627 26 352 3.2 4.8 0.00 0.00 0.00 47 1016.9
20260506235127 26 12 3.2 8.0 0.00 0.00 0.00 47 1016.8
20260506234625 26 355 6.4 8.0 0.00 0.00 0.00 46 1016.8
20260506234122 26 349 1.6 4.8 0.00 0.00 0.00 47 1016.9
20260506233619 26 336 1.6 6.4 0.00 0.00 0.00 45 1016.9
20260506233116 26 314 3.2 6.4 0.00 0.00 0.00 46 1016.9
20260506232612 26 16 3.2 8.0 0.00 0.00 0.00 46 1016.9
20260506232107 26 294 1.6 6.4 0.00 0.00 0.00 46 1016.9
20260506231605 26 0 3.2 6.4 0.00 0.00 0.00 45 1016.9
20260506231103 26 350 4.8 4.8 0.00 0.00 0.00 45 1017.0
20260506230559 26 325 3.2 8.0 0.00 0.00 0.00 45 1016.9
20260506230056 26 351 3.2 6.4 0.00 0.00 0.00 45 1017.3
20260506225553 26 304 3.2 6.4 0.00 0.00 0.00 45 1017.1
20260506225049 26 269 3.2 6.4 0.00 0.00 0.00 46 1017.2
20260506224547 26 18 3.2 8.0 0.00 0.00 0.00 46 1017.4
20260506224043 26 14 3.2 9.7 0.00 0.00 0.00 45 1017.4
20260506223539 26 6 3.2 6.4 0.00 0.00 0.00 45 1017.2
20260506223036 26 36 3.2 4.8 0.00 0.00 0.00 47 1017.5
20260506222533 26 311 4.8 6.4 0.00 0.00 0.00 45 1017.6
20260506222029 26 358 4.8 4.8 0.00 0.00 0.00 45 1017.6
20260506221526 26 327 4.8 4.8 0.00 0.00 0.00 45 1017.4
20260506221025 26 11 3.2 6.4 0.00 0.00 0.00 45 1017.7
20260506220520 26 23 1.6 6.4 0.00 0.00 0.00 44 1017.9
20260506220016 26 341 0.0 4.8 0.00 0.00 0.00 45 1017.9
20260506215513 26 341 1.6 6.4 0.00 0.00 0.00 46 1018.1
20260506215008 26 340 4.8 4.8 0.00 0.00 0.00 46 1018.2
20260506214506 26 355 3.2 4.8 0.00 0.00 0.00 46 1018.0
20260506214003 25 47 3.2 6.4 0.00 0.00 0.00 47 1018.4
20260506213501 25 20 6.4 6.4 0.00 0.00 0.00 47 1018.4
20260506212958 25 11 1.6 6.4 0.00 0.00 0.00 46 1018.3
20260506212454 25 23 4.8 4.8 0.00 0.00 0.00 47 1018.4
20260506211948 25 286 0.0 6.4 0.00 0.00 0.00 47 1018.4
20260506211445 25 358 1.6 6.4 0.00 0.00 0.00 48 1018.5
20260506210942 25 321 1.6 8.0 0.00 0.00 0.00 46 1018.5
20260506210438 25 358 1.6 6.4 0.00 0.00 0.00 48 1018.5
20260506205936 25 41 6.4 6.4 0.00 0.00 0.00 48 1018.4
20260506205432 25 42 6.4 6.4 0.00 0.00 0.00 48 1018.7
20260506204928 25 330 1.6 4.8 0.00 0.00 0.00 50 1018.8
20260506204426 25 21 4.8 8.0 0.00 0.00 0.00 47 1018.7
20260506203923 25 314 3.2 8.0 0.00 0.00 0.00 49 1018.6
20260506203420 25 312 0.0 3.2 0.00 0.00 0.00 48 1018.8
20260506202917 24 355 3.2 6.4 0.00 0.00 0.00 49 1019.0
20260506202414 25 7 4.8 6.4 0.00 0.00 0.00 49 1018.9
20260506201911 25 331 0.0 4.8 0.00 0.00 0.00 50 1018.9
20260506201409 25 316 6.4 6.4 0.00 0.00 0.00 48 1018.9
20260506200905 24 336 1.6 8.0 0.00 0.00 0.00 50 1019.2
20260506200401 25 312 1.6 4.8 0.00 0.00 0.00 47 1019.0
20260506195858 24 331 4.8 4.8 0.00 0.00 0.00 50 1019.1
20260506195355 24 323 3.2 3.2 0.00 0.00 0.00 50 1019.0
20260506194851 24 359 0.0 4.8 0.00 0.00 0.00 48 1019.4
20260506194348 23 339 1.6 3.2 0.00 0.00 0.00 52 1019.2
20260506193846 23 108 1.6 4.8 0.00 0.00 0.00 49 1019.3
20260506193342 23 292 1.6 4.8 0.00 0.00 0.00 51 1019.3
20260506192839 23 316 3.2 4.8 0.00 0.00 0.00 51 1019.6
20260506192336 23 324 0.0 3.2 0.00 0.00 0.00 52 1019.4
20260506191833 23 327 1.6 6.4 0.00 0.00 0.00 51 1019.5
20260506191329 23 330 0.0 3.2 0.00 0.00 0.00 51 1019.6
20260506190826 23 345 3.2 6.4 0.00 0.00 0.00 51 1019.6
20260506190322 23 324 3.2 4.8 0.00 0.00 0.00 51 1019.8
20260506185819 23 338 1.6 3.2 0.00 0.00 0.00 53 1019.7
20260506185316 23 31 1.6 4.8 0.00 0.00 0.00 52 1020.0
20260506184813 23 9 1.6 4.8 0.00 0.00 0.00 53 1019.9
20260506184311 22 333 0.0 4.8 0.00 0.00 0.00 54 1019.8
20260506183808 22 12 3.2 6.4 0.00 0.00 0.00 52 1019.7
20260506183303 22 22 1.6 3.2 0.00 0.00 0.00 55 1019.9
20260506182800 22 353 1.6 4.8 0.00 0.00 0.00 52 1019.9
20260506182257 22 3 0.0 4.8 0.00 0.00 0.00 54 1020.0
20260506181755 23 318 0.0 3.2 0.00 0.00 0.00 53 1019.8
20260506181253 22 307 1.6 3.2 0.00 0.00 0.00 52 1019.9
20260506180749 22 10 3.2 4.8 0.00 0.00 0.00 54 1019.8
20260506180245 22 9 1.6 4.8 0.00 0.00 0.00 55 1019.9
20260506175742 22 342 4.8 6.4 0.00 0.00 0.00 54 1020.0
20260506175239 22 321 1.6 4.8 0.00 0.00 0.00 56 1020.0
20260506174737 21 71 1.6 4.8 0.00 0.00 0.00 55 1020.0
20260506174233 21 0 3.2 4.8 0.00 0.00 0.00 54 1020.0
20260506173731 22 308 1.6 3.2 0.00 0.00 0.00 54 1020.0
20260506173227 21 37 0.0 4.8 0.00 0.00 0.00 54 1020.0
20260506172724 21 31 1.6 3.2 0.00 0.00 0.00 56 1019.9
20260506172221 21 309 0.0 4.8 0.00 0.00 0.00 56 1020.2
20260506171719 21 344 0.0 4.8 0.00 0.00 0.00 55 1019.9
20260506171216 21 337 1.6 3.2 0.00 0.00 0.00 55 1020.1
20260506170713 21 356 1.6 3.2 0.00 0.00 0.00 60 1020.2
20260506170210 20 309 0.0 4.8 0.00 0.00 0.00 59 1020.2
20260506165708 20 58 4.8 4.8 0.00 0.00 0.00 58 1020.2
20260506165205 20 352 1.6 6.4 0.00 0.00 0.00 57 1020.1
20260506164702 20 302 0.0 3.2 0.00 0.00 0.00 58 1020.4
20260506164159 21 346 1.6 3.2 0.00 0.00 0.00 57 1020.1
20260506163655 20 47 3.2 3.2 0.00 0.00 0.00 59 1020.3
20260506163150 20 31 1.6 3.2 0.00 0.00 0.00 61 1020.4
20260506162647 20 358 1.6 4.8 0.00 0.00 0.00 60 1020.4
20260506162144 20 53 0.0 3.2 0.00 0.00 0.00 60 1020.3
20260506161641 20 34 1.6 3.2 0.00 0.00 0.00 59 1020.5
20260506161138 20 82 0.0 3.2 0.00 0.00 0.00 60 1020.3
20260506160636 20 310 0.0 3.2 0.00 0.00 0.00 61 1020.6
20260506160132 20 323 0.0 3.2 0.00 0.00 0.00 63 1020.4
20260506155632 20 37 0.0 1.6 0.00 0.00 0.00 62 1020.4
20260506155128 18 19 0.0 1.6 0.00 0.00 0.00 64 1020.7
20260506153230 18 63 0.0 3.2 0.00 0.00 0.00 66 1020.6
20260506152727 17 89 3.2 3.2 0.00 0.00 0.00 66 1020.7
20260506152224 18 103 0.0 3.2 0.00 0.00 0.00 66 1020.8
20260506151724 17 69 0.0 1.6 0.00 0.00 0.00 69 1020.8
20260506151219 17 49 0.0 3.2 0.00 0.00 0.00 68 1020.8
20260506150716 17 76 3.2 3.2 0.00 0.00 0.00 69 1020.8
20260506150213 17 52 0.0 3.2 0.00 0.00 0.00 69 1020.7
20260506145710 16 50 0.0 1.6 0.00 0.00 0.00 75 1020.8
20260506145206 14 100 0.0 1.6 0.00 0.00 0.00 85 1020.9
20260506144704 12 113 0.0 0.0 0.00 0.00 0.00 90 1020.8
20260506144201 12 71 0.0 1.6 0.00 0.00 0.00 92 1021.0
20260506143658 11 102 0.0 1.6 0.00 0.00 0.00 93 1021.0
20260506143156 11 89 0.0 3.2 0.00 0.00 0.00 93 1021.0
20260506142655 11 89 0.0 1.6 0.00 0.00 0.00 93 1021.0
20260506142152 11 102 0.0 1.6 0.00 0.00 0.00 94 1020.9
20260506141649 11 96 0.0 1.6 0.00 0.00 0.00 95 1020.8
20260506141148 11 95 0.0 3.2 0.00 0.00 0.00 96 1020.6
20260506140645 11 66 0.0 3.2 0.00 0.00 0.00 97 1020.7
20260506140142 10 99 0.0 1.6 0.00 0.00 0.00 97 1020.5
20260506135639 9 95 1.6 3.2 0.00 0.00 0.00 97 1020.4
20260506135135 9 121 0.0 3.2 0.00 0.00 0.00 97 1020.3
20260506134632 8 113 0.0 3.2 0.00 0.00 0.00 96 1020.4
20260506134127 8 89 0.0 3.2 0.00 0.00 0.00 96 1020.1
20260506133625 8 92 1.6 3.2 0.00 0.00 0.00 96 1020.3
20260506133122 8 89 1.6 3.2 0.00 0.00 0.00 96 1020.1
20260506132619 8 89 1.6 1.6 0.00 0.00 0.00 96 1020.1
20260506132116 8 96 0.0 1.6 0.00 0.00 0.00 96 1020.0
20260506131613 8 101 1.6 3.2 0.00 0.00 0.00 96 1020.0
20260506131109 8 102 0.0 3.2 0.00 0.00 0.00 96 1020.1
20260506130607 8 75 0.0 3.2 0.00 0.00 0.00 96 1019.9
20260506130104 8 99 1.6 1.6 0.00 0.00 0.00 96 1019.9
20260506125602 8 110 0.0 1.6 0.00 0.00 0.00 96 1020.0
20260506125100 8 89 0.0 1.6 0.00 0.00 0.00 96 1019.8
20260506124557 8 124 1.6 3.2 0.00 0.00 0.00 96 1019.8
20260506124055 8 93 0.0 3.2 0.00 0.00 0.00 95 1019.7
20260506123552 8 120 1.6 3.2 0.00 0.00 0.00 95 1019.7
20260506123051 8 127 0.0 1.6 0.00 0.00 0.00 95 1019.6
20260506122547 8 112 0.0 3.2 0.00 0.00 0.00 95 1019.6
20260506122045 8 88 1.6 3.2 0.00 0.00 0.00 95 1019.7
20260506121542 8 103 1.6 3.2 0.00 0.00 0.00 95 1019.5
20260506121038 8 101 0.0 1.6 0.00 0.00 0.00 95 1019.7
20260506120537 8 129 1.6 3.2 0.00 0.00 0.00 95 1019.6
20260506120034 8 108 1.6 3.2 0.00 0.00 0.00 95 1019.7
20260506115532 8 114 0.0 1.6 0.00 0.00 0.00 95 1019.6
20260506115030 8 93 1.6 3.2 0.00 0.00 0.00 95 1019.8
20260506114527 8 95 0.0 1.6 0.00 0.00 0.00 95 1019.4
20260506114025 8 102 0.0 1.6 0.00 0.00 0.00 95 1019.3
20260506113523 8 97 0.0 1.6 0.00 0.00 0.00 95 1019.3
20260506113020 8 100 1.6 1.6 0.00 0.00 0.00 94 1019.5
20260506112516 8 101 0.0 1.6 0.00 0.00 0.00 94 1019.2
20260506112014 8 89 0.0 1.6 0.00 0.00 0.00 94 1019.3
20260506111512 9 94 0.0 1.6 0.00 0.00 0.00 94 1019.4
20260506111008 9 99 0.0 1.6 0.00 0.00 0.00 94 1019.3
20260506110506 9 100 1.6 1.6 0.00 0.00 0.00 94 1019.5
20260506110003 9 102 0.0 1.6 0.00 0.00 0.00 94 1019.4
20260506105459 9 80 0.0 1.6 0.00 0.00 0.00 94 1019.4
20260506104957 9 102 0.0 1.6 0.00 0.00 0.00 94 1019.3
20260506104454 10 113 0.0 1.6 0.00 0.00 0.00 94 1019.4
20260506103953 9 124 0.0 1.6 0.00 0.00 0.00 93 1019.5
20260506103449 10 89 0.0 0.0 0.00 0.00 0.00 93 1019.2
20260506102946 10 76 0.0 0.0 0.00 0.00 0.00 93 1019.3
20260506102444 10 119 0.0 1.6 0.00 0.00 0.00 92 1019.3
20260506101941 10 89 0.0 1.6 0.00 0.00 0.00 93 1019.4
20260506101438 10 98 1.6 3.2 0.00 0.00 0.00 92 1019.1
20260506100935 10 80 0.0 1.6 0.00 0.00 0.00 91 1019.0
20260506100433 10 100 0.0 1.6 0.00 0.00 0.00 91 1018.9
20260506095931 10 103 0.0 1.6 0.00 0.00 0.00 91 1019.2
20260506095429 10 92 0.0 1.6 0.00 0.00 0.00 91 1019.0
20260506094925 10 99 0.0 1.6 0.00 0.00 0.00 91 1019.4
20260506094424 11 111 0.0 0.0 0.00 0.00 0.00 91 1019.0
20260506093921 11 110 0.0 1.6 0.00 0.00 0.00 91 1019.1
20260506093419 11 102 0.0 0.0 0.00 0.00 0.00 91 1019.3
20260506092916 11 103 0.0 0.0 0.00 0.00 0.00 91 1019.1
20260506092414 11 110 0.0 0.0 0.00 0.00 0.00 92 1019.3
20260506091910 11 55 0.0 0.0 0.00 0.00 0.00 92 1019.3
20260506091409 11 69 0.0 0.0 0.00 0.00 0.00 92 1019.4
20260506090905 11 44 0.0 0.0 0.00 0.00 0.00 92 1019.4
20260506090403 11 69 0.0 1.6 0.00 0.00 0.00 91 1019.5
20260506085900 11 72 0.0 1.6 0.00 0.00 0.00 91 1019.5
20260506085356 11 113 0.0 0.0 0.00 0.00 0.00 91 1019.2
20260506084852 11 89 0.0 0.0 0.00 0.00 0.00 91 1019.2
20260506084349 11 69 0.0 1.6 0.00 0.00 0.00 91 1019.1
20260506083846 11 87 0.0 1.6 0.00 0.00 0.00 90 1019.1
20260506083344 11 119 0.0 0.0 0.00 0.00 0.00 90 1019.2
20260506082841 11 77 0.0 0.0 0.00 0.00 0.00 90 1019.0
20260506082337 11 103 0.0 0.0 0.00 0.00 0.00 90 1019.3
20260506081833 11 103 0.0 0.0 0.00 0.00 0.00 90 1019.0
20260506081332 11 110 0.0 0.0 0.00 0.00 0.00 89 1019.2
20260506080829 11 55 0.0 0.0 0.00 0.00 0.00 89 1019.2
20260506080325 11 129 0.0 0.0 0.00 0.00 0.00 89 1019.2
20260506073310 12 76 0.0 1.6 0.00 0.00 0.00 86 1018.8
20260506072806 12 80 0.0 0.0 0.00 0.00 0.00 85 1018.9
20260506072305 12 110 0.0 1.6 0.00 0.00 0.00 85 1018.9
20260506071801 13 76 0.0 0.0 0.00 0.00 0.00 85 1018.8
20260506071259 12 113 0.0 3.2 0.00 0.00 0.00 85 1018.9
20260506070756 12 89 0.0 0.0 0.00 0.00 0.00 86 1018.7
20260506070253 12 76 0.0 1.6 0.00 0.00 0.00 86 1018.6
20260506062230 12 99 0.0 1.6 0.00 0.00 0.00 86 1018.3
20260506061726 12 113 0.0 1.6 0.00 0.00 0.00 86 1018.4
20260506061224 12 107 0.0 0.0 0.00 0.00 0.00 85 1018.3
20260506060722 12 129 0.0 0.0 0.00 0.00 0.00 85 1018.4
20260506060218 13 44 0.0 1.6 0.00 0.00 0.00 84 1018.3
20260506051151 14 129 0.0 0.0 0.00 0.00 0.00 80 1018.0
20260506050649 14 129 0.0 0.0 0.00 0.00 0.00 79 1017.8
20260506050146 14 50 0.0 0.0 0.00 0.00 0.00 78 1018.0
20260506044637 14 80 0.0 1.6 0.00 0.00 0.00 77 1017.7
20260506044133 14 49 0.0 0.0 0.00 0.00 0.00 78 1017.7
20260506043631 15 22 0.0 0.0 0.00 0.00 0.00 77 1017.7
20260506043129 15 138 0.0 0.0 0.00 0.00 0.00 77 1017.6
20260506042627 15 50 0.0 0.0 0.00 0.00 0.00 77 1017.6
20260506042125 15 66 0.0 1.6 0.00 0.00 0.00 77 1017.5
20260506041624 14 59 1.6 1.6 0.00 0.00 0.00 78 1017.4